Location: Augirein
(42.9320°N, 0.9181°E)
Time: 04:44:48
(UTC+00:00)

Envisat - Visible Passes

Search period start: 22 September 2021 00:00
Search period end: 02 October 2021 00:00
Orbit: 764 x 766 km, 98.2° (Epoch: 21 September)

Date Brightness Start Highest point End Pass type
(mag) Time Alt. Az. Time Alt. Az. Time Alt. Az.
22 Sep 5.4 04:12:22 10° NE 04:16:28 24° E 04:20:31 10° SSE visible
23 Sep 6.3 03:38:14 10° ENE 03:39:11 10° E 03:40:08 10° E visible
23 Sep 3.1 05:13:47 10° NNE 05:18:54 90° E 05:23:58 10° SSW visible
24 Sep 4.4 04:37:10 10° NNE 04:41:58 41° E 04:46:44 10° SSE visible
25 Sep 5.7 04:01:16 10° NE 04:04:51 19° E 04:08:25 10° SE visible
26 Sep 3.3 05:02:17 10° NNE 05:07:23 72° ESE 05:12:27 10° S visible
27 Sep 4.9 04:25:50 10° NNE 04:30:24 32° E 04:34:55 10° SSE visible
28 Sep 5.9 03:50:21 10° NE 03:53:12 15° E 03:56:03 10° SE visible
29 Sep 3.8 04:50:50 10° NNE 04:55:51 56° E 05:00:50 10° S visible
30 Sep 5.3 04:14:35 10° NE 04:18:48 26° E 04:23:00 10° SSE visible
01 Oct 6.2 03:39:53 10° ENE 03:41:33 11° E 03:43:13 10° ESE visible
01 Oct 3.0 05:16:06 10° NNE 05:21:12 84° WNW 05:26:17 10° SSW visible
